Find STARLINK-37880

NORAD ID: 799500976 Int'l Des: 2026-135A Constellation: starlink operational

現在のビュー

3D地球を読み込み中...

About STARLINK-37880

STARLINK-37880 (NORAD 799500976) is a starlink constellation satellite launched Jun 8, 2026

STARLINK-37880について

説明を読み込み中...

次回通過

Passes for default location (London). Set your location on the main map for personalized predictions.

高度履歴

Loading altitude history...

軌道要素

1 99999C 2026135A 26167.11854167 .00409860 00000-0 637830-4 0 1674
2 99999 97.2796 193.9280 0010493 266.5280 49.2175 16.03783304 19
Epoch: Jun 16, 2026 • Age: 4 hours